Regional Weather Roundup
Issued by NWS

Home | Current Version | Previous Version | Text Only | Print | Product List | Glossary Off
Versions: 1 2 3 4 5 6 7 8 9 10 11 12 13 14 15 16 17 18 19 20 21 22 23 24 25 26 27 28 29 30 31 32 33 34 35 36 37 38 39 40 41 42 43 44 45 46 47 48 49 50

000
ASUS43 KMPX 190401
RWRMN
WEATHER ROUNDUP FOR MINNESOTA
NATIONAL WEATHER SERVICE TWIN CITIES/CHANHASSEN MN
1100 PM CDT SAT APR 18 2015


NOTE: "FAIR" INDICATES FEW OR NO CLOUDS BELOW 12,000 FEET WITH NO
SIGNIFICANT WEATHER AND/OR OBSTRUCTIONS TO VISIBILITY. N/A MEANS
CURRENT SKY AND/OR WEATHER CONDITIONS ARE NOT AVAILABLE.

MNZ060>063-068>070-190500-
   Twin Cities Metro

CITY           SKY/WX    TMP DP  RH WIND       PRES   REMARKS
TWIN CITIES    LGT RAIN  58  47  66 SE13      29.90S
ST PAUL        LGT RAIN  58  43  57 SE10      29.92S
CRYSTAL        LGT RAIN  60  42  51 SE13      29.89S
BLAINE         LGT RAIN  59  41  51 E10       29.91S
LAKEVILLE      LGT RAIN  55  54  94 SE8       29.91S
EDEN PRAIRIE   LGT RAIN  58  53  84 SE15      29.88F
SOUTH ST PAUL  LGT RAIN  58  43  57 SE3       29.91F
LAKE ELMO      LGT RAIN  55  41  58 E7        29.93S
$$
MNZ001>005-007-008-013>017-022>024-027-028-190500-
   Northwest Minnesota

CITY           SKY/WX    TMP DP  RH WIND       PRES   REMARKS
BEMIDJI        CLOUDY    53  32  45 SE14      29.90F
HALLOCK        CLOUDY    57  27  30 SE13      29.82F
ROSEAU         CLOUDY    54  28  37 SE7       29.86F
WARROAD        CLOUDY    52  30  43 SE10      29.88F
THIEF RVR FALL CLOUDY    57  30  35 SE12      29.85F
CROOKSTON      CLOUDY    57  32  38 SE8       29.84F
FOSSTON        CLOUDY    55  30  38 SE9       29.86F
DETROIT LAKES  CLOUDY    59  32  36 SE16      29.86F
MOORHEAD       CLOUDY    61  30  31 E8        29.82F
PARK RAPIDS    CLOUDY    54  31  41 E15G22    29.89F
MAHNOMEN       FAIR      59  32  36 SE9       29.85F
$$
MNZ006-009>011-018-025>026-190500-
   North Central Minnesota

CITY           SKY/WX    TMP DP  RH WIND       PRES   REMARKS
BAUDETTE       CLOUDY    52  21  29 SE10      29.90F
FLAG ISLAND    MOCLDY    48  25  40 SE7       29.88F
INTL FALLS     MOCLDY    49  19  30 SE12      29.96F
WASKISH        CLOUDY    52  30  43 E10       29.90F
BIG FORK       CLOUDY    48  28  46 SE10      29.96F
LONGVILLE      CLOUDY    48  30  49 E5        29.93F
GRAND RAPIDS   CLOUDY    45  23  42 E9        29.95F
ORR            MOCLDY    45  19  36 CALM      29.96F
COOK           CLOUDY    43  21  42 E6        29.98F
WALKER         FAIR      51  33  50 E7        29.92F
$$
MNZ012-019>021-037-190500-
   Northeast Minnesota

CITY           SKY/WX    TMP DP  RH WIND       PRES   REMARKS
DULUTH         CLOUDY    40  26  57 E10       29.99F
ELY            MOCLDY    43  16  33 E3        30.00F
HIBBING        CLOUDY    42  22  44 E7        29.97F
EVELETH        CLOUDY    39  21  48 E3        29.99F
DULUTH HARBOR  CLOUDY    39  34  81 NE17      30.03F
TWO HARBORS    MOCLDY    45  28  53 NE9       29.99F
SILVER BAY     PTCLDY    43  25  49 NE10G17   30.02F
GRAND MARAIS     N/A     44  21  40 NE17G24   30.09F
G MARAIS ARPRT PTCLDY    37  12  35 E13G20    30.07F
$$
MNZ029>031-032-039>041-046>048-054>057-064-190500-
   West Central Minnesota

CITY           SKY/WX    TMP DP  RH WIND       PRES   REMARKS
FERGUS FALLS   DRIZZLE   54  46  76 SE14      29.87S
WHEATON        LGT RAIN  50  46  87 E7        29.86F
MORRIS         RAIN      54  46  76 E13       29.82F
ALEXANDRIA     LGT RAIN  53  44  71 E15       29.87F
ELBOW LAKE     LGT RAIN  52  48  86 E7        29.85F
WADENA         DRIZZLE   54  36  50 E14       29.88F
GLENWOOD       RAIN      52  46  82 E14       29.85F
APPLETON       LGT RAIN  54  48  82 E7        29.81F
BENSON         LGT RAIN  52  48  87 E5        29.82F
ORTONVILLE     DRIZZLE   54  50  87 NE8       29.82F
MADISON        LGT RAIN  54  50  87 SE7       29.81F
WILLMAR        RAIN      55  55 100 E20G25    29.82F
$$
MNZ033>034-036-042>043-049>051-058-059-190500-
   Central Minnesota

CITY           SKY/WX    TMP DP  RH WIND       PRES   REMARKS
ST CLOUD       CLOUDY    53  42  66 E13       29.87F
SAUK CENTRE    LGT RAIN  51  45  81 E9        29.86F
PAYNESVILLE    LGT RAIN  53  44  71 NE9G16    29.85F
AITKIN         MIX PCPN  45  32  61 E5        29.93F
PINE RIVER     CLOUDY    46  34  61 E9G18     29.96F
BRAINERD       LGT RAIN  44  34  67 SE8       29.94F
STAPLES        RAIN      48  37  66 E9        29.90F
LONG PRAIRIE   LGT RAIN  48  43  81 NE12      29.88F
LITTLE FALLS   LGT RAIN  46  41  81 E8        29.90F
LITCHFIELD     CLOUDY    57  55  94 E9        29.85F
BUFFALO        LGT RAIN  58  52  80 E7        29.88F
MAPLE LAKE     LGT RAIN  59  53  78 E6        29.87F
$$
MNZ037-044-045-052-053-190500-
   East Central Minnesota

CITY           SKY/WX    TMP DP  RH WIND       PRES   REMARKS
PRINCETON      DRIZZLE   55  45  67 E10       29.90F
MORA           CLOUDY    45  36  70 E3        29.95F
CAMBRIDGE      CLOUDY    57  41  54 E7        29.90F
RUSH CITY      CLOUDY    51  39  64 NE6       29.94F
MOOSE LAKE     CLOUDY    36  32  87 CALM      29.97S
HINCKLEY       CLOUDY    45  36  70 NE5       29.96F
CLOQUET        CLOUDY    39  27  60 E9G16     29.98F
MCGREGOR       CLOUDY    41  32  70 E7        29.97F
$$
MNZ071>073-080-081-089-090-097-098-190500-
   Southwest Minnesota

CITY           SKY/WX    TMP DP  RH WIND       PRES   REMARKS
MONTEVIDEO     LGT RAIN  54  54 100 SE10      29.81F
GRANITE FALLS  DRIZZLE   55  54  94 E9        29.82F
CANBY          RAIN      55  53  94 SE3       29.82F
MARSHALL       CLOUDY    55  50  82 SE9       29.80F
REDWOOD FALLS  LGT RAIN  57  55  93 SE16      29.81F
OLIVIA         CLOUDY    54  52  94 SE18      29.81F
PIPESTONE      DRIZZLE   55  54  94 SE8       29.80F
WINDOM         CLOUDY    57  55  94 SE9       29.82F
WORTHINGTON    CLOUDY    54  52  94 SE8       29.83F
JACKSON        LGT RAIN  55  54  94 SE10      29.83F
TRACY          RAIN      56  56  97 S8        29.82F
SLAYTON        LGT RAIN  54  54 100 SE9       29.83F
$$
MNZ065>067-074>077-082>085-091>093-190500-
   South Central Minnesota

CITY           SKY/WX    TMP DP  RH WIND       PRES   REMARKS
MANKATO        CLOUDY    57  48  72 E20       29.83F
NEW ULM        LGT RAIN  57  54  88 SE15G21   29.82F
ST JAMES       LGT RAIN  57  54  88 E15       29.83F
FAIRMONT       CLOUDY    55  45  67 SE16      29.82F
GLENCOE        LGT RAIN  58  56  92 E16       29.85F
FARIBAULT      LGT RAIN  55  54  94 E9        29.90F
OWATONNA       RAIN      55  50  82 E15       29.88F
ALBERT LEA     CLOUDY    54  54 100 E15G22    29.86F
$$
MNZ078>079-086>088-094>096-190500-
   Southeast Minnesota

CITY           SKY/WX    TMP DP  RH WIND       PRES   REMARKS
ROCHESTER      LGT RAIN  54  49  83 SE6       29.95R
RED WING       RAIN      55  39  54 SE12G23   29.93R
STANTON        LGT RAIN  57  48  71 SE9       29.91R
DODGE CENTER   LGT RAIN  55  52  88 E7        29.92F
WINONA         RAIN      55  34  44 E12       29.93F
AUSTIN         LGT RAIN  55  50  82 E13       29.89F
PRESTON        CLOUDY    58  40  51 SE7       29.94F
$$
ABBREVIATIONS USED IN REMARKS
   TC - TEMPERATURES IN CELSIUS
  WCI - WIND CHILL INDEX
   HX - HEAT INDEX
  VSB - VISIBILITY
$$



USA.gov is the U.S. government's official web portal to all federal, state and local government web resources and services.